Regional Weather Roundup
Issued by NWS

Home | Current Version | Previous Version | Text Only | Print | Product List | Glossary Off
Versions: 1 2 3 4 5 6 7 8 9 10 11 12 13 14 15 16 17 18 19 20 21 22 23 24 25 26 27 28 29 30 31 32 33 34 35 36 37 38 39 40 41 42 43 44 45 46 47 48 49 50

000
ASUS43 KFSD 231210
RWRSD

WEATHER ROUNDUP FOR SOUTH DAKOTA
NATIONAL WEATHER SERVICE SIOUX FALLS SD
700 AM CDT TUE MAY 23 2017

NOTE: "FAIR" INDICATES FEW OR NO CLOUDS BELOW 12,000 FEET WITH NO
SIGNIFICANT WEATHER AND/OR OBSTRUCTIONS TO VISIBILITY.


SDZ001>005-009-010-012>017-231300-
NORTHWEST AND NORTH CENTRAL SOUTH DAKOTA

CITY           SKY/WX    TMP DP  RH WIND       PRES   REMARKS
BUFFALO          N/A     38  34  85 W5        30.09R
FAITH            N/A     41  38  89 NW13      30.09S
MOBRIDGE       CLOUDY    50  39  66 N10       30.00R
$$

SDZ012>016-024>037-041>051-057-063-072>074-231300-
SOUTHWEST AND SOUTH CENTRAL SOUTH DAKOTA

CITY           SKY/WX    TMP DP  RH WIND       PRES   REMARKS
RAPID CTY ARPT CLOUDY    48  39  71 N14       30.14R
PIERRE         CLOUDY    48  39  71 N16       30.01R
CUSTER         CLOUDY    38  30  73 N5        30.15S
ELLSWORTH AFB  CLOUDY    48  40  75 N15       30.13R
PHILIP         CLEAR     42  39  89 NW9       30.08R
PINE RIDGE     CLOUDY    42  40  92 W3        30.12R
SPEARFISH      MOCLDY    45  37  76 W7        30.18R
WINNER         CLOUDY    49  42  77 NW13      30.01R
$$

SDZ004>011-016>023-039-040-231300-
NORTHEAST SOUTH DAKOTA

CITY           SKY/WX    TMP DP  RH WIND       PRES   REMARKS
ABERDEEN       LGT RAIN  46  43  89 N13       29.96R FOG
WATERTOWN      CLOUDY    45  44  97 N10       29.88S
BROOKINGS      CLOUDY    46  44  93 NW9       29.88S
SISSETON         N/A     48  46  93 N15       29.90R
$$

SDZ017-020-022-023-036>040-048>070-231300-
SOUTHEAST SOUTH DAKOTA

CITY           SKY/WX    TMP DP  RH WIND       PRES   REMARKS
SIOUX FALLS    CLOUDY    48  45  89 NW12      29.89R
HURON          CLOUDY    47  45  93 N14       29.93S
CHAMBERLAIN    MOCLDY    49  43  79 NW9       29.98S
MITCHELL       CLOUDY    48  45  89 NW12      29.94R
YANKTON        CLOUDY    48  45  89 NW15      29.92S
$$

ABBREVIATIONS USED IN REMARKS
   TC - TEMPERATURE IN CELSIUS
  WCI - WIND CHILL INDEX
   HX - HEAT INDEX
  VSB - VISIBILITY




USA.gov is the U.S. government's official web portal to all federal, state and local government web resources and services.